World > North America > United States > Pennsylvania

Crestmont, Pennsylvania Regional Weather

Lat: 41.18N, Lon: 77.37W
Wx Zone: PAZ045Web Search

Our weather pages are very print friendly and they make great conversation starters.

Feedback


°F Click to change Crestmont hourly weather to Imperial units.Click to change Crestmont hourly weather to Metric units. °C
Crestmont Weather Map
UTC Time: 5/17/2021, 20:25
Your Time:

Crestmont, PA Regional Weather

Expires:202105172100;;272971
ASUS41 KCTP 172010
RWRCTP

REGIONAL WEATHER ROUNDUP
NATIONAL WEATHER SERVICE STATE COLLEGE PA
400 PM EDT MON MAY 17 2021

Note: "fair" indicates few or no clouds below 12,000 feet with no 
significant weather and/or obstructions to visibility.

* = STATION THAT DOES NOT REPORT PRECIPITATION /E.G. RAIN...SNOW...ETC/
    THUNDER OR FOG.


PAZ004>006-010>012-017>019-024>028-033>037-041-042-045-046-049>053-172100-
CENTRAL PENNSYLVANIA
  
CITY           SKY/WX    TMP DP  RH WIND       PRES   REMARKS
BRADFORD       MOSUNNY   69  37  30 CALM      30.27S                  
ST MARYS       MOCLDY    70  45  40 SW5       30.29F                  
DUBOIS         MOSUNNY   71  40  32 E3        30.26F                  
CLEARFIELD     CLOUDY    71  43  36 VRB3      30.27F                  
JOHNSTOWN      CLOUDY    65  40  39 CALM      30.28S                  
SOMERSET       MOCLDY    64  43  45 SW6       30.29S                  
ALTOONA        MOSUNNY   70  44  39 S8        30.28F                  
STATE COLLEGE  MOSUNNY   70  45  40 CALM      30.28F                  
REEDSVILLE     FAIR      72 -35   1 VRB3      30.27                   
WELLSBORO      FAIR      68  39  34 S8G17     30.26F                  
WILLIAMSPORT   MOSUNNY   73  40  30 S6        30.25F                  
SELINSGROVE    MOSUNNY   72  42  34 S8        30.27F                  
FT INDIANTOWN  PTSUNNY   76  41  28 S3        30.27F                  
CAPITAL CITY   PTSUNNY   72  46  39 SW5       30.28F                  
HARRISBURG     PTSUNNY   73  45  36 VRB5      30.27F                  
YORK           PTSUNNY   71  45  39 VRB6      30.28                   
$$


SKY/WX - Weather  TMP - Temperature  DP - Dew Point  RH - Relative Humidity
WIND - Wind Direction/Speed PRES - Barometric Pressure VSB - Visibility
WCI - Wind Chill Index E13G22 Wind - East Wind 13 mph/Gusts of 22 mph